064  
ASUS41 KOKX 230210  
RWROKX  
 
REGIONAL WEATHER ROUNDUP  
NATIONAL WEATHER SERVICE NEW YORK NY  
900 PM EST THU FEB 22 2024  
 
NOTE: "FAIR" INDICATES FEW OR NO CLOUDS BELOW 12,000 FEET WITH NO  
SIGNIFICANT WEATHER AND/OR S TO VISIBILITY
.  
 
NYZ071-072-176-178-NJZ106-104-230300-  
NEW YORK CITY METRO AREA  
 
CITY SKY/WX TMP DP RH WIND PRES REMARKS
 
CENTRAL PARK CLOUDY 42 35 76 MISG 29.80F  
WORLD TRD CTR NOT AVBL  
BRONX LEHMAN C NOT AVBL  
LAGUARDIA ARPT NOT AVBL  
QUEENS COLLEGE NOT AVBL  
KENNEDY INTL LGT RAIN 40 37 89 S10 29.80F WCI 33  
BREEZY POINT N/A 41 N/A N/A S12 N/A  
BROOKLYN COLL NOT AVBL  
STATEN ISLAND NOT AVBL  
NEWARK/LIBERTY NOT AVBL  
TETERBORO NOT AVBL  

 
 
NYZ177-179-078>081-230300-  
LONG ISLAND NEW YORK  
 
CITY SKY/WX TMP DP RH WIND PRES REMARKS
 
JONES BEACH N/A 41 N/A N/A S8 N/A  
WANTAGH NOT AVBL  
HEMPSTEAD NOT AVBL  
MATINECOCK PT N/A 39 N/A N/A S3 N/A  
FARMINGDALE NOT AVBL  
MACARTHUR/ISP NOT AVBL  
STONY BROOK NOT AVBL  
SHIRLEY NOT AVBL  
MT SINAI HARB N/A 39 N/A N/A S5G12 N/A  
WESTHAMPTON NOT AVBL  
EAST HAMPTON NOT AVBL  
SOUTHOLD NOT AVBL  
MONTAUK N/A 41 34 76 SW5 29.85R  

 
 
NYZ052-065-067-230300-  
HUDSON VALLEY  
 
CITY SKY/WX TMP DP RH WIND PRES REMARKS
 
WHITE PLAINS NOT AVBL  
LARCHMONT HARB N/A N/A N/A N/A SE7 N/A  
CROTON ON HUDS N/A 37 N/A N/A E3 N/A  
SOMERS NOT AVBL  
BREWSTER NOT AVBL  
NEWBURGH NOT AVBL  
MONTGOMERY NOT AVBL  
OTISVILLE NOT AVBL  
WARWICK NOT AVBL  
SUFFERN NOT AVBL  
POUGHKEEPSIE NOT AVBL  
ALBANY NOT AVBL  

 
 
NJZ001-105-106-008-010-013-015-019>022-104-230300-  
NEW JERSEY  
 
CITY SKY/WX TMP DP RH WIND PRES REMARKS
 
NEWARK/LIBERTY NOT AVBL  
TETERBORO NOT AVBL  
CALDWELL NOT AVBL  
SOMERVILLE NOT AVBL  
LINDEN NOT AVBL  
PERTH AMBOY N/A 39 N/A N/A SE6 N/A WCI 35  
SUSSEX NOT AVBL  
ANDOVER N/A 37 34 89 CALM 29.74F  
TRENTON NOT AVBL  
MILLVILLE NOT AVBL  
ATLANTIC CITY LGT RAIN 42 39 89 S6 29.78F  
WRIGHTSTOWN LGT RAIN 41 37 87 S6 29.75F  
TOMS RIVER NOT AVBL  
BELMAR NOT AVBL  

 
 
PAZ047>061-062-071-230300-  
EASTERN PENNSYLVANIA  
 
CITY SKY/WX TMP DP RH WIND PRES REMARKS
 
PHILADELPHIA RAIN 40 38 93 SE5 29.75F  
ALLENTOWN NOT AVBL  
SCRANTON NOT AVBL  

 
 
CTZ002-004>006-009-010-012-RIZ004-006-007-MAZ004-011-015-230300-  
SOUTHERN NEW ENGLAND  
 
IN CT  
 
CITY SKY/WX TMP DP RH WIND PRES REMARKS
 
BRADLEY INTL NOT AVBL  
HARTFORD NOT AVBL  
DANBURY NOT AVBL  
WTRBURY/OXFORD NOT AVBL  
NORWALK HARBOR N/A N/A N/A N/A SE5 N/A  
BRIDGEPORT NOT AVBL  
MERIDEN NOT AVBL  
NEW HAVEN NOT AVBL  
CHESTER NOT AVBL  
GROTON NOT AVBL  
WILLIMANTIC NOT AVBL  
 
IN RI  
 
CITY SKY/WX TMP DP RH WIND PRES REMARKS
 
PROVIDENCE NOT AVBL  
BLOCK ISLAND NOT AVBL  
WESTERLY NOT AVBL  
 
IN MA  
 
CITY SKY/WX TMP DP RH WIND PRES REMARKS
 
BOSTON CLOUDY 35 30 82 SW12 29.79F WCI 27  
WORCESTER NOT AVBL  
WESTFIELD LGT RAIN 36 31 82 S14 29.77F WCI 27  
PROVINCETOWN NOT AVBL  
NANTUCKET NOT AVBL  

 
 
ANZ330-335-338-340-345-350-353-355-230300-  
COASTAL MARINE OBSERVATIONS  
 
 
STATION/POSITION TIME SKY/WX TEMP WIND PRES VSBY WAVE
 
AIR SEA DIR/SP/G HT/PER  
(UTC) (F) (DEG/KT/KT) (MB) (MI) (FT/S)  
NY HARB ENTRANCE 0150 41 N/A 6/14  
20 S FIRE ISLAND NOT AVBL  
GREAT SOUTH BAY NOT AVBL  
23 SSW MONTAUK P NOT AVBL  
15 E BARNEGAT LI 0126 42 N/A 7/13  
HUDSON CANYON NOT AVBL  
KINGS POINT 0124 40 40 160/ 11/ 13 1009.0  
EXECUTION ROCKS 0145 40 180/ 8 1008.3  
WESTERN LI SOUND NOT AVBL  
CENTRAL LI SOUND NOT AVBL  
ROBBINS REEF 0124 40 150/ 11/ 12 1008.7  

 
 
>>>>>>>>>>>>>>>>>>>>>>>>>>>> KEY <<<<<<<<<<<<<<<<<<<<<<<<<<<  
> <  
> SKY/WX - SKY CONDITION/PRESENT WEATHER <  
> TMP - TEMPERATURE IN FAHRENHEIT <  
> DP - DEW POINT IN FAHRENHEIT <  
> RH - RELATIVE HUMIDITY IN PERCENT <  
> WIND - DIRECTION (FROM) AND SPEED IN MPH <  
> PRES - MEAN SEA LEVEL PRESSURE (INCHES OF HG) <  
> WCI - WIND CHILL INDEX <  
> VSB - VISIBILITY IN MILES <  
> HX - HEAT INDEX <  
> TC - TEMPERATURE IN CELSIUS <  
> VRB - VARIABLE WIND DIRECTION <  
> <  
>>>>>>>>>>>>>>>>>>>>>>>>>>>> KEY <<<<<<<<<<<<<<<<<<<<<<<<<<<  
 
 
CLICK HERE TO GO TO PREVIOUS BULLETINS.

The Nexlab NY Page
The Nexlab NJ Page
The Nexlab CT Page Main Text Page